Flag for Germany Weather past 2 weeks in Limburg an der Lahn, Hesse, Germany

Now
75 °F

Passing clouds.


Feels Like: 77 °F
Forecast: 60 / 86 °F
Wind: 5 mph from Southeast

Location: Hessen

Current Time: Jun 30, 2015 at 2:41:38 PM

Latest Report: Jun 30, 2015 at 1:50 PM


Visibility: N/A

Pressure: 30.21 "Hg

Humidity: 39%

Dew point: 48 °F

Location of Limburg an der LahnLocation

Historic Weather in Limburg an der Lahn — Graph

°F

Limburg an der Lahn temperature yesterday

Maximum temperature yesterday: 72 °F (at 12:20 PM)
Minimum temperature yesterday: 64 °F (at 7:50 AM)
Average temperature yesterday: 69 °F

Past Weeks' High & Low Weather Summary

 TemperatureHumidityPressure
High75 °F (Jun 30, 1:20 PM)100% (Jun 18, 7:50 AM)30.27 "Hg (Jun 18, 7:50 AM)
Low45 °F (Jun 19, 6:20 AM)43% (Jun 25, 4:50 PM)29.68 "Hg (Jun 22, 8:50 PM)
Average58 °F76%30.10 "Hg
* Reported Jun 15 1:20 PM — Jun 30 1:20 PM, Limburg an der Lahn, Weather by CustomWeather, © 2015

Note: Actual official high and low records may vary slightly from our data, if they occured in-between our weather recording intervals... More about our weather records

Advertising

Limburg an der Lahn weather history for previous 24 hours

 ConditionsComfort  
Time TempWeatherWind HumidityBarometerVisibility
1:20 PM
Tue, Jun 30
75 °FSunny.3 mph44%30.24 "Hg10 mi
12:50 PM73 °FSunny.5 mph47%30.24 "Hg10 mi
12:20 PM73 °FSunny.3 mph50%30.24 "Hg10 mi
11:50 AM72 °FMild.3 mph57%30.21 "HgN/A
10:50 AM70 °FMild.5 mph53%30.24 "HgN/A
10:20 AM68 °FPassing clouds.6 mph60%30.24 "HgN/A
9:50 AM68 °FPassing clouds.6 mph60%30.24 "HgN/A
9:20 AM68 °FPassing clouds.6 mph60%30.24 "HgN/A
8:50 AM68 °FSunny.2 mph60%30.24 "Hg10 mi
8:20 AM66 °FSunny.3 mph64%30.24 "Hg10 mi
7:50 AM64 °FSunny.2 mph64%30.24 "Hg10 mi
9:50 PM
Mon, Jun 29
64 °FSunny.5 mph60%30.21 "Hg10 mi
9:20 PM64 °FSunny.5 mph64%30.21 "Hg10 mi
8:50 PM66 °FSunny.6 mph60%30.21 "Hg10 mi
8:20 PM68 °FSunny.8 mph56%30.21 "Hg10 mi
7:50 PM70 °FSunny.9 mph53%30.21 "Hg10 mi
7:20 PM72 °FSunny.8 mph53%30.21 "Hg10 mi
6:50 PM72 °FSunny.8 mph50%30.21 "Hg10 mi
6:20 PM72 °FSunny.8 mph50%30.21 "Hg10 mi
5:50 PM72 °FSunny.7 mph50%30.21 "Hg10 mi
5:20 PM72 °FSunny.10 mph53%30.18 "Hg10 mi
4:50 PM72 °FSunny.9 mph53%30.21 "Hg10 mi
4:20 PM72 °FPassing clouds.12 mph53%30.21 "HgN/A
3:50 PM72 °FPassing clouds.14 mph57%30.21 "HgN/A
3:20 PM72 °FPassing clouds.14 mph61%30.18 "HgN/A
2:50 PM72 °FScattered clouds.8 mph61%30.18 "HgN/A
2:20 PM72 °FScattered clouds.8 mph61%30.18 "HgN/A
Weather by CustomWeather, © 2015

See weather overviewHow to use our weather pages